Newport News, VA

3:22 PM EST on December 06, 2016 (GMT -0500)
Newport News-Williamsburg International

Weather History for KPHF - September, 2013

Change the Weather History Date:

Saturday, September 7, 2013

  Actual Average Record
Temperature  
Mean Temperature 71 °F -  
Max Temperature 82 °F 84 °F 100 °F (1954)
Min Temperature 60 °F 66 °F 51 °F (1976)
Cooling Degree Days 6    
Growing Degree Days 21 (Base 50)    
Moisture  
Dew Point 56 °F    
Average Humidity 60    
Maximum Humidity 81    
Minimum Humidity 39    
Precipitation  
Precipitation 0.00 in - - ()
Sea Level Pressure  
Sea Level Pressure 30.07 in    
Wind  
Wind Speed 2 mph (SW)    
Max Wind Speed 7 mph    
Max Gust Speed -    
Visibility 10 miles    
Events      
Averages and records for this station are not official NWS values.
T = Trace of Precipitation, MM = Missing Value Source: NWS Daily Summary

Daily Weather History Graph

Daily Weather History Graph

Search for Another Location

Airport or City:

Trip Planner

Search our weather history database for the weather conditions in past years. The results will help you decide how hot, cold, wet, or windy it might be!

Date:

Astronomy

Sep. 07, 2013 Rise Set
Actual Time 6:41 AM EDT 7:25 PM EDT
Civil Twilight 6:15 AM EDT 7:51 PM EDT
Nautical Twilight 5:44 AM EDT 8:22 PM EDT
Astronomical Twilight 5:12 AM EDT 8:54 PM EDT
Moon 8:49 AM EDT (9/7) 8:27 PM EDT (9/7)
Length of Visible Light 13h 36m
Length of Day
12h 43m
Waxing Crescent, 5% of the Moon is Illuminated
Sep 7
Waxing Crescent
Sep 12
First Quarter
Sep 19
Full
Sep 26
Last Quarter
Oct 4
New

Hourly Weather History & Observations

Time (EDT) Temp. Heat Index Dew Point Humidity Pressure Visibility Wind Dir Wind Speed Gust Speed Precip Events Conditions
12:54 AM 61.0 °F - 55.0 °F 81% 30.14 in 10.0 mi Calm Calm - N/A   Clear
1:54 AM 61.0 °F - 55.0 °F 81% 30.13 in 10.0 mi Calm Calm - N/A   Clear
2:54 AM 61.0 °F - 54.0 °F 78% 30.12 in 10.0 mi Calm Calm - N/A   Clear
3:54 AM 61.0 °F - 55.0 °F 81% 30.12 in 10.0 mi Calm Calm - N/A   Mostly Cloudy
4:54 AM 61.0 °F - 55.0 °F 81% 30.12 in 10.0 mi Calm Calm - N/A   Scattered Clouds
5:54 AM 60.1 °F - 54.0 °F 80% 30.12 in 10.0 mi Calm Calm - N/A   Clear
6:54 AM 60.1 °F - 54.0 °F 80% 30.13 in 10.0 mi Calm Calm - N/A   Clear
7:54 AM 66.9 °F - 57.9 °F 73% 30.13 in 10.0 mi Calm Calm - N/A   Clear
8:54 AM 72.0 °F - 61.0 °F 68% 30.12 in 10.0 mi Calm Calm - N/A   Clear
9:54 AM 75.0 °F - 54.0 °F 48% 30.12 in 10.0 mi Calm Calm - N/A   Clear
10:54 AM 78.1 °F - 54.0 °F 43% 30.12 in 10.0 mi Variable 4.6 mph - N/A   Clear
11:54 AM 78.1 °F - 53.1 °F 42% 30.11 in 10.0 mi SSW 3.5 mph - N/A   Partly Cloudy
12:54 PM 79.0 °F - 52.0 °F 39% 30.09 in 10.0 mi WSW 6.9 mph - N/A   Clear
1:54 PM 80.1 °F 79.9 °F 53.1 °F 39% 30.06 in 10.0 mi SSW 5.8 mph - N/A   Clear
2:54 PM 80.1 °F 79.9 °F 53.1 °F 39% 30.04 in 10.0 mi Variable 3.5 mph - N/A   Scattered Clouds
3:54 PM 80.1 °F 80.1 °F 55.0 °F 42% 30.02 in 10.0 mi NW 3.5 mph - N/A   Scattered Clouds
4:54 PM 82.0 °F 81.6 °F 55.9 °F 41% 30.00 in 10.0 mi West 5.8 mph - N/A   Mostly Cloudy
5:54 PM 81.0 °F 80.8 °F 55.9 °F 42% 30.00 in 10.0 mi Variable 4.6 mph - N/A   Clear
6:54 PM 78.1 °F - 57.0 °F 48% 29.99 in 10.0 mi SSW 4.6 mph - N/A   Clear
7:54 PM 71.1 °F - 59.0 °F 66% 29.99 in 10.0 mi Calm Calm - N/A   Clear
8:54 PM 66.9 °F - 59.0 °F 76% 30.00 in 10.0 mi Calm Calm - N/A   Scattered Clouds
9:54 PM 73.0 °F - 57.0 °F 57% 30.00 in 10.0 mi South 5.8 mph - N/A   Clear
10:54 PM 71.1 °F - 57.0 °F 61% 29.99 in 10.0 mi South 5.8 mph - N/A   Clear
11:54 PM 71.1 °F - 57.9 °F 63% 29.98 in 10.0 mi SSW 6.9 mph - N/A   Clear